This demonstration page uses our WeatherBlox Daily Observations layout. Learn more.

Left ArrowRight Arrow

39.51506, -84.39828

Hourly Observations for August 29, 2016

Temp ( °F °C ) Dew Point ( °F °C ) Humidity (%) Winds ( mph kmh ) Pressure ( in mb ) Visibility ( mi km ) Precip ( " mm )
12:15 am 00:15 Clear 74 23.6 69 20.5 83 83 N N/A 30.15 1021 10 16 N/A
12:35 am 00:35 Clear 73 22.6 67 19.5 83 83 W 3 6 30.15 1021 10 16 N/A
12:55 am 00:55 Clear 74 23.6 68 20 80 80 E 3 6 30.15 1021 10 16 N/A
1:15 am 01:15 Clear 72 22.3 67 19.2 83 83 NE 3 6 30.18 1022 7 11 N/A
1:35 am 01:35 Clear 72 22.3 67 19.4 84 84 NNE 8 13 30.18 1022 10 16 N/A
1:55 am 01:55 Clear 72 22.3 67 19.2 83 83 NE 3 6 30.18 1022 10 16 N/A
2:15 am 02:15 Clear 72 22.3 67 19.2 83 83 N N/A 30.18 1022 10 16 N/A
2:35 am 02:35 Clear 70 21.3 65 18.3 83 83 N 5 7 30.18 1022 10 16 N/A
2:55 am 02:55 Clear 70 21 64 18 83 83 N N/A 30.18 1022 10 16 N/A
3:15 am 03:15 Clear 69 20.8 64 17.9 84 84 N N/A 30.18 1022 10 16 N/A
3:35 am 03:35 Hazy 69 20.8 65 18.1 85 85 N N/A 30.18 1022 5 8 N/A
3:55 am 03:55 Hazy 69 20.8 65 18.1 85 85 N N/A 30.18 1022 5 8 N/A
4:15 am 04:15 Clear 69 20.8 65 18.1 85 85 N N/A 30.18 1022 10 16 N/A
4:35 am 04:35 Clear 69 20.8 65 18.1 85 85 N N/A 30.18 1022 7 11 N/A
4:55 am 04:55 Clear 69 20.8 65 18.1 85 85 N N/A 30.18 1022 10 16 N/A
5:15 am 05:15 Clear 69 20.8 65 18.2 85 85 N N/A 30.18 1022 10 16 N/A
5:35 am 05:35 Clear 69 20.8 65 18.1 85 85 N N/A 30.18 1022 10 16 N/A
5:55 am 05:55 Clear 69 20.8 65 18.1 85 85 N N/A 30.18 1022 7 11 N/A
6:15 am 06:15 Clear 69 20.8 65 18.1 85 85 N N/A 30.18 1022 7 11 N/A
6:35 am 06:35 Clear 69 20.8 65 18.1 85 85 N N/A 30.18 1022 10 16 N/A
6:55 am 06:55 Clear 69 20.8 65 18.2 85 85 N 3 6 30.18 1022 7 11 N/A
7:15 am 07:15 Sunny 69 20.8 65 18.2 85 85 N N/A 30.18 1022 7 11 N/A
7:35 am 07:35 Sunny 69 20.8 65 18.2 85 85 NNW 3 6 30.21 1023 7 11 N/A
7:55 am 07:55 Sunny 69 20.8 65 18.2 85 85 N N/A 30.21 1023 10 16 N/A
8:15 am 08:15 Sunny 70 21 65 18.3 85 85 N N/A 30.21 1023 10 16 N/A
8:35 am 08:35 Sunny 74 23.5 69 20.4 83 83 N N/A 30.21 1023 10 16 N/A
8:55 am 08:55 Sunny 74 23.6 68 20 80 80 N 6 9 30.21 1023 10 16 N/A
9:15 am 09:15 Sunny 74 23.6 67 19.7 79 79 N 5 7 30.21 1023 10 16 N/A
9:35 am 09:35 Sunny 77 25.1 69 20.7 77 77 N N/A 30.21 1023 10 16 N/A
9:55 am 09:55 Sunny 77 25.1 68 20.1 74 74 NNE 5 7 30.21 1023 10 16 N/A
10:15 am 10:15 Sunny 80 26.5 70 21.2 73 73 NNE 6 9 30.21 1023 10 16 N/A
10:35 am 10:35 Sunny 80 26.5 69 20.8 71 71 N N/A 30.21 1023 10 16 N/A
10:55 am 10:55 Sunny 81 27.2 69 20.3 66 66 N N/A 30.21 1023 10 16 N/A
11:15 am 11:15 Sunny 82 28 67 19.5 60 60 N N/A 30.21 1023 10 16 N/A
11:35 am 11:35 Sunny 83 28.6 66 18.8 55 55 NE 3 6 30.21 1023 10 16 N/A
11:55 am 11:55 Sunny 83 28.6 65 18.6 55 55 NE 7 11 30.21 1023 10 16 N/A
12:15 pm 12:15 Sunny 86 30.1 67 19.6 53 53 ENE 6 9 30.21 1023 10 16 N/A
12:35 pm 12:35 Sunny 87 30.7 68 20 53 53 ENE 3 6 30.18 1022 10 16 N/A
12:55 pm 12:55 Sunny 89 31.4 70 20.9 54 54 NNE 3 6 30.18 1022 10 16 N/A
1:15 pm 13:15 Sunny 90 32.1 70 21 52 52 NE 5 7 30.18 1022 10 16 N/A
1:35 pm 13:35 Partly Cloudy 90 32.1 69 20.5 50 50 N 5 7 30.18 1022 10 16 N/A
1:55 pm 13:55 Sunny 90 32.1 68 20.1 49 49 ENE 6 9 30.18 1022 10 16 N/A
2:15 pm 14:15 Sunny 90 32.1 67 19.2 46 46 ENE 5 7 30.18 1022 10 16 N/A
2:35 pm 14:35 Partly Cloudy 90 32.1 66 19 46 46 E 7 11 30.18 1022 10 16 N/A
2:55 pm 14:55 Partly Cloudy 90 32.1 69 20.3 50 50 NNE 9 15 30.15 1021 10 16 N/A
3:15 pm 15:15 Partly Cloudy 90 32.1 67 19.2 46 46 ENE 5 7 30.15 1021 10 16 N/A
3:35 pm 15:35 Mostly Cloudy 90 32.1 67 19.3 47 47 NNE 6 9 30.15 1021 10 16 N/A
3:55 pm 15:55 Mostly Cloudy 87 30.7 68 20.2 54 54 ENE 6 9 30.15 1021 10 16 N/A
4:15 pm 16:15 Sunny 90 32.1 67 19.6 48 48 E 3 6 30.12 1020 10 16 N/A
4:35 pm 16:35 Partly Cloudy 90 32.1 67 19.3 47 47 N N/A 30.12 1020 10 16 N/A
4:55 pm 16:55 Partly Cloudy 90 32.1 67 19.4 47 47 NE 6 9 30.12 1020 10 16 N/A
5:15 pm 17:15 Partly Cloudy 90 32.1 66 18.8 45 45 ENE 5 7 30.12 1020 10 16 N/A
5:35 pm 17:35 Sunny 90 32.1 64 17.6 42 42 E 7 11 30.12 1020 10 16 N/A
5:55 pm 17:55 Mostly Cloudy 90 32.1 66 19 46 46 ENE 8 13 30.12 1020 10 16 N/A
6:15 pm 18:15 Partly Cloudy 90 32.1 67 19.7 48 48 E 3 6 30.09 1019 10 16 N/A
6:35 pm 18:35 Partly Cloudy 89 31.8 68 20.1 50 50 NE 7 11 30.09 1019 10 16 N/A
6:55 pm 18:55 Sunny 90 32.1 69 20.8 51 51 NE 3 6 30.09 1019 10 16 N/A
7:15 pm 19:15 Sunny 90 32.1 68 19.8 48 48 E 5 7 30.09 1019 10 16 N/A
7:35 pm 19:35 Partly Cloudy 88 30.9 67 19.2 50 50 ENE 3 6 30.12 1020 10 16 N/A
7:55 pm 19:55 Sunny 84 29 66 18.7 54 54 ENE 3 6 30.15 1021 10 16 N/A
8:15 pm 20:15 Clear 81 27.2 70 20.9 69 69 N N/A 30.15 1021 10 16 N/A
8:30 pm 20:30 Clear 80 26.5 72 22 76 76 N N/A 30.15 1021 10 16 N/A
8:55 pm 20:55 Partly Cloudy 77 25.1 69 20.7 77 77 N 5 7 30.15 1021 10 16 N/A
9:15 pm 21:15 Clear 78 25.3 70 21 77 77 N N/A 30.15 1021 10 16 N/A
9:35 pm 21:35 Clear 77 25.1 70 21.2 79 79 N N/A 30.15 1021 10 16 N/A
9:55 pm 21:55 Clear 76 24.6 70 21 80 80 N N/A 30.15 1021 7 11 N/A
10:15 pm 22:15 Hazy 74 23.6 68 20.2 81 81 N N/A 30.18 1022 4 6 N/A
10:35 pm 22:35 Clear 74 23.6 69 20.5 83 83 NNW 3 6 30.15 1021 7 11 N/A
10:55 pm 22:55 Clear 74 23.6 69 20.5 83 83 N N/A 30.15 1021 7 11 N/A
11:15 pm 23:15 Clear 74 23.6 68 20.2 81 81 NNW 3 6 30.15 1021 7 11 N/A
11:35 pm 23:35 Clear 74 23.6 68 20.2 81 81 N N/A 30.15 1021 7 11 N/A
11:55 pm 23:55 Clear 74 23.6 68 20.2 81 81 N 3 6 30.15 1021 7 11 N/A

Powered by AerisWeather